Regional Weather Roundup
Issued by NWS

Home | Current Version | Previous Version | Graphics & Text | Print | Product List | Glossary On
Versions: 1 2 3 4 5 6 7 8 9 10 11 12 13 14 15 16 17 18 19 20 21 22 23 24 25 26 27 28 29 30 31 32 33 34 35 36 37 38 39 40 41 42 43 44 45 46 47 48 49 50
931
ASUS45 KTFX 101710
RWRMT
MONTANA REGIONAL WEATHER ROUNDUP
NATIONAL WEATHER SERVICE GREAT FALLS MT
1000 AM MST WED FEB 10 2016

NOTE: "FAIR" INDICATES FEW OR NO CLOUDS BELOW 12000 FEET WITH NO
SIGNIFICANT WEATHER AND/OR OBSTRUCTIONS TO VISIBILITY.

MTZ001>007-043-101800-
WEST OF THE DIVIDE

CITY           SKY/WX    TMP DP  RH WIND       PRES   REMARKS
KALISPELL      CLOUDY    25  23  92 CALM      30.25F FOG
MISSOULA       FOG       24  23  96 CALM      30.31F VSB 1/2
BUTTE          CLOUDY    10   7  87 CALM      30.28R
MULLAN PASS    MOSUNNY   38  27  64 S6        30.23R
ANACONDA         N/A     32  25  74 NW5       30.25S
DEER LODGE       N/A     21  21 100 CALM      30.29R
HAMILTON         N/A     32  28  86 CALM      30.29S
LIBBY            N/A     28  27  93 CALM      30.28S
PLAINS           N/A     30  27  89 CALM      30.26F VSB 0
$$

MTZ008-052>055-101800-
SOUTHWEST MONTANA

CITY           SKY/WX    TMP DP  RH WIND       PRES   REMARKS
BOZEMAN        CLOUDY    23  19  85 CALM      30.23R
DILLON         CLOUDY    34  24  67 SW16      30.28R WCI  24
ENNIS          SUNNY     39  25  56 S14G24    30.30R WCI  31
THREE FORKS      N/A     26  26 100 CALM      30.19S
TWIN BRIDGES     N/A     27  19  71 SE6       30.24R WCI  21
$$

MTZ009-010-012-014-046-048-049-054-101800-
EAST SLOPES AND CENTRAL MONTANA

CITY           SKY/WX    TMP DP  RH WIND       PRES   REMARKS
CUT BANK       PTSUNNY   44  27  51 N8        30.10R
GREAT FALLS    CLOUDY    44  27  51 NW10      30.10R
HELENA         CLOUDY    31  27  85 NW3       30.22R
CHOTEAU          N/A     50  25  37 E13G21    30.11R
CONRAD           N/A     46  30  54 N1        30.11R
$$

MTZ011-013-016-021-045-047-050-051-101800-
NORTH CENTRAL MONTANA

CITY           SKY/WX    TMP DP  RH WIND       PRES   REMARKS
HAVRE          MOSUNNY   38  28  67 E5        30.10R
LEWISTOWN      CLOUDY    45  26  47 NW7       30.08R
N BAR RANCH      N/A     52  19  28 N12       30.07R
CHINOOK          N/A     37  28  70 W5        30.10S
$$

MTZ017>020-022>027-061-062-101800-
NORTHEAST MONTANA

CITY           SKY/WX    TMP DP  RH WIND       PRES   REMARKS
GLASGOW        CLOUDY    34  29  82 NW10      30.06R WCI  26
JORDAN           N/A     45  29  53 N10       30.02R
SIDNEY         CLOUDY    39  28  65 N16       30.00R WCI  30
WOLF POINT     CLOUDY    40  32  73 NW7       30.03R
PLENTYWOOD       N/A     30  30 100 N6        30.00R WCI  24
POPLAR           N/A     37  30  75 NW8       30.02R WCI  31
SCOBEY           N/A     32  25  76 NW9       30.00R WCI  24
$$

MTZ028>42-056>058-101800-
SOUTHCENTRAL AND SOUTHEAST MONTANA

CITY           SKY/WX    TMP DP  RH WIND       PRES   REMARKS
BAKER          SUNNY     44  27  51 NW12      29.95R
BILLINGS       CLOUDY    47  21  35 SW15      30.06R
LIVINGSTON     CLOUDY    48  21  34 W32G43    30.16R
MILES CITY     CLOUDY    48  29  47 NW10      29.99R
EKALAKA          N/A     45  21  38 NW10      29.96
FORSYTH          N/A     46  25  42 W7        30.03R
LAUREL           N/A     43  21  41 S2        30.06R
ROUNDUP          N/A     55  20  25 SW1       29.96R
$$

REGIONAL REPORTS...DAKOTAS

CITY           SKY/WX    TMP DP  RH WIND       PRES   REMARKS
WILLISTON      CLOUDY    30  25  81 N9        30.00R WCI  22
MINOT          CLOUDY    18   8  65 E9        29.97S HAZE    WCI   7
DICKINSON      SUNNY     39  29  67 NW21G29   29.89R WCI  29
BEACH            N/A     39  30  70 N21G26    29.98R WCI  29
CROSBY         CLOUDY    19  19 100 NW5       30.02R
TIOGA          CLOUDY    23  23 100 N8        30.01R WCI  14
WATFORD CITY   CLOUDY    32  27  80 NW9       29.98R WCI  24
BISMARCK       CLOUDY    24  15  68 SE6       29.94R WCI  17
GRAND FORKS    CLOUDY     8  -1  66 E7        30.16R WCI  -3
FARGO          CLOUDY    10   3  73 E6        30.12R WCI   0
BUFFALO SD       N/A     49  25  39 NW26G36   29.86R
RAPID CITY     SUNNY     63  21  20 NW24G31   29.89F
$$

REGIONAL REPORTS...WYOMING/IDAHO/WASHINGTON

CITY           SKY/WX    TMP DP  RH WIND       PRES   REMARKS
GILLETTE       SUNNY     52  20  28 NW14      30.03R
SHERIDAN       MOSUNNY   55  18  22 NW3       30.02R
BUFFALO WY     CLOUDY    55  13  18 CALM      30.07R
CODY           CLOUDY    55  14  19 W20G29    30.12S
YELLOWSTONE LA   N/A     18  15  88 CALM      30.37F
IDAHO FALLS    CLOUDY    11   8  88 N8        30.44R WCI  -1
SALMON         CLOUDY    10  10 100 CALM      30.48R VSB 1/4
BOISE          FOG       30  29  96 CALM      30.46R VSB 1/4
SPOKANE        FOG       31  30  96 NE3       30.25R VSB 1/4
$$

REGIONAL REPORTS...ALBERTA

CITY           SKY/WX    TMP DP  RH WIND       PRES   REMARKS
EDMONTON       CLOUDY    32  27  80 E3        30.15R
CALGARY          N/A     34  25  69 NW2       30.08S
LETHBRIDGE     PTSUNNY   37  27  65 N6        30.11R
MEDICINE HAT   PTSUNNY   36  28  75 NE6       30.11R WCI  31
WATERTON GATE    N/A     50  27  40 SW26G37     N/A
CARDSTON         N/A     46  23  39 SW1         N/A
MILK RIVER       N/A     41  25  52 NW6         N/A
ONEFOUR          N/A     36  27  69 NW10        N/A  WCI  28
$$

REGIONAL REPORTS...SASKATCHEWAN

CITY           SKY/WX    TMP DP  RH WIND       PRES   REMARKS
SWIFT CURRENT  CLOUDY    30  30 100 N9        30.06R WCI  22
REGINA         FLURRIES  25  23  93 NW17      30.03R WCI  11
SASKATOON      CLOUDY    21  18  86 N15       30.16R WCI   8
CYPRESS HILLS    N/A     34  28  80 N6          N/A  WCI  29
VAL MARIE        N/A     36  30  80 N9          N/A  WCI  29
ROCKGLEN         N/A     28  28 100 N15G21      N/A  WCI  17
ASSINIBOIA       N/A     30  27  86 NE8         N/A  WCI  23
$$




USA.gov is the U.S. government's official web portal to all federal, state and local government web resources and services.